TimeMST,TemperatureF,Dew PointF,Humidity,Sea Level PressureIn,VisibilityMPH,Wind Direction,Wind SpeedMPH,Gust SpeedMPH,PrecipitationIn,Events,Conditions,WindDirDegrees,DateUTC
12:53 AM,19.9,3.9,50,30.13,10.0,SE,6.9,-,N/A,,Clear,130,2011-11-17 07:53:00
1:53 AM,23.0,3.2,43,29.98,10.0,SSW,10.4,-,N/A,,Clear,200,2011-11-17 08:53:00
2:53 AM,21.0,5.0,50,30.05,10.0,South,8.1,-,N/A,,Clear,170,2011-11-17 09:53:00
3:53 AM,19.0,6.1,57,30.02,10.0,ESE,11.5,-,N/A,,Clear,110,2011-11-17 10:53:00
5:53 AM,28.9,8.1,41,29.93,10.0,SW,20.7,28.8,N/A,,Clear,220,2011-11-17 12:53:00
6:53 AM,28.9,9.0,43,29.92,10.0,SW,19.6,28.8,N/A,,Clear,230,2011-11-17 13:53:00
7:53 AM,32.0,10.9,42,29.90,10.0,SW,18.4,27.6,N/A,,Clear,220,2011-11-17 14:53:00
8:53 AM,35.1,12.9,40,29.87,10.0,SW,21.9,31.1,N/A,,Clear,220,2011-11-17 15:53:00
9:53 AM,39.2,15.8,39,29.72,10.0,SW,25.3,34.5,N/A,,Clear,220,2011-11-17 16:53:00
10:53 AM,39.0,18.0,43,29.77,10.0,SSW,23.0,31.1,N/A,,Clear,210,2011-11-17 17:53:00
11:53 AM,42.1,19.9,41,29.71,10.0,SW,27.6,38.0,N/A,,Partly Cloudy,230,2011-11-17 18:53:00
12:53 PM,44.1,19.9,38,29.66,10.0,SW,25.3,36.8,N/A,,Clear,220,2011-11-17 19:53:00
1:53 PM,46.9,21.9,37,29.62,10.0,SW,24.2,38.0,N/A,,Clear,230,2011-11-17 20:53:00
2:53 PM,48.9,21.9,35,29.59,10.0,SW,29.9,38.0,N/A,,Clear,230,2011-11-17 21:53:00
4:53 PM,48.0,24.1,39,29.60,10.0,SW,17.3,26.5,N/A,,Clear,220,2011-11-17 23:53:00
5:53 PM,46.9,24.1,41,29.59,10.0,SW,12.7,-,N/A,,Clear,230,2011-11-18 00:53:00
6:53 PM,46.0,24.1,42,29.59,10.0,SW,15.0,-,N/A,,Clear,230,2011-11-18 01:53:00
7:53 PM,44.1,24.1,45,29.60,10.0,SW,12.7,-,N/A,,Clear,220,2011-11-18 02:53:00
8:53 PM,39.0,23.0,53,29.63,10.0,North,13.8,20.7,N/A,,Mostly Cloudy,10,2011-11-18 03:53:00
9:00 PM,37.4,23.0,56,29.62,10.0,NNE,13.8,-,N/A,,Mostly Cloudy,30,2011-11-18 04:00:00
9:53 PM,34.0,23.0,64,29.67,10.0,NNE,8.1,-,N/A,,Clear,30,2011-11-18 04:53:00
10:53 PM,30.0,21.9,72,29.66,10.0,NE,6.9,-,N/A,,Clear,50,2011-11-18 05:53:00
11:53 PM,26.1,21.0,81,29.67,10.0,Calm,Calm,-,N/A,,Partly Cloudy,0,2011-11-18 06:53:00